Location: ????
(30.4801°N, 48.0275°E)
Time: 14:22:12
(UTC+00:00)

Daily predictions for brighter satellites

Satellite Brightness Start Highest point End
(mag) Time Altitude Azimuth Time Altitude Azimuth Time Altitude Azimuth
Cosmos 2315 Rocket 4.1 16:12:05 10° N 16:18:26 82° E 16:24:49 10° S
USA 229 DEB 4.3 16:12:18 10° NW 16:19:43 68° WSW 16:27:20 10° SSE
USA 229 4.3 16:12:23 10° NW 16:19:48 68° WSW 16:27:27 10° SSE
Cosmos 2219 Rocket 3.6 16:16:20 10° SE 16:19:49 17° E 16:23:19 10° ENE
Cosmos 2263 Rocket 2.2 16:16:40 10° NNW 16:22:14 75° ENE 16:27:47 10° SSE
Cosmos 2360 Rocket 2.2 16:17:45 10° S 16:23:19 66° ESE 16:28:55 10° NNE
Cosmos 1602 Rocket 4.0 16:20:06 10° SSE 16:24:12 40° E 16:28:22 10° NNE
Cosmos 1726 Rocket 4.3 16:20:36 10° NNW 16:25:00 59° W 16:29:22 10° S
IRS-1A Rocket 4.3 16:19:37 10° SSE 16:25:01 61° ENE 16:30:25 10° N
Cosmos 1125 Rocket 4.3 16:20:37 10° N 16:25:26 35° ENE 16:30:14 10° SE
NOSS 3-3 (A) 4.4 16:24:37 10° S 16:29:35 33° ESE 16:34:53 10° NE
NOSS 3-3 (C) 4.4 16:24:44 10° S 16:29:41 33° ESE 16:34:59 10° NE
NOSS 3-1 (A) 4.4 16:22:03 10° NNW 16:30:10 81° WSW 16:39:07 10° SSE
ARGOS 3.2 16:26:23 10° SSE 16:31:49 87° ENE 16:37:16 10° NNW
DMSP B5D2-2 4.0 16:29:28 10° NNE 16:34:39 66° ESE 16:39:48 10° S
SJ-6B 3.0 16:31:00 10° SSE 16:34:51 55° ENE 16:38:49 10° N
H-2A R/B 2.7 16:31:26 10° S 16:36:48 64° W 16:42:13 10° NNW
MONITOR-E 4.3 16:35:07 12° SE 16:37:12 35° ENE 16:39:30 10° N
Cosmos 2285 Rocket 4.3 16:31:17 10° NNW 16:37:31 69° WSW 16:43:45 10° S
CZ-2C R/B 2.5 16:35:00 10° NNE 16:40:20 76° ESE 16:45:31 10° S
Cosmos 2333 Rocket 2.9 16:36:06 10° SSE 16:41:00 31° ESE 16:45:55 10° NE
Cosmos 2298 Rocket 4.2 16:39:10 10° NNW 16:44:29 79° WSW 16:49:48 10° S
ATLAS 5 CENTAUR R/B 2.8 16:41:56 10° SW 16:45:43 42° WNW 16:49:48 10° NNE
SPOT 3 Rocket 4.1 16:41:19 11° SE 16:45:56 40° ENE 16:50:48 10° N
SL-16 R/B 4.4 16:41:26 10° WSW 16:46:18 29° WNW 16:51:13 10° N
Meteor 2-10 Rocket 4.3 16:41:35 10° NNE 16:46:19 34° ENE 16:50:19 14° SE
BREEZE-M (TANK) 3.8 16:52:18 18° SE 16:52:57 19° ESE 16:56:46 10° ENE
Atlas Centaur 2 2.1 16:50:16 10° W 16:55:17 89° S 17:01:17 12° E
Cosmos 783 Rocket 4.4 16:52:11 10° SSW 16:57:26 82° ESE 17:02:39 10° NNE
Meteor 2-1 Rocket 4.4 16:52:17 10° N 16:58:05 61° E 17:03:23 13° SSE
Cosmos 1844 Rocket 3.7 16:57:19 10° N 17:02:10 30° ENE 17:05:07 19° ESE
Hubble Space Telescope 1.6 17:00:42 10° SW 17:04:21 31° SSE 17:05:46 24° SE
SL-08 ROCKET BODY 4.3 16:59:26 10° S 17:05:20 81° E 17:11:22 10° N
Resurs 01 Rocket 2.2 17:03:28 21° SE 17:05:53 39° ENE 17:09:58 10° N
Cosmos 1758 Rocket 3.5 17:05:41 10° S 17:10:08 67° E 17:14:36 10° NNE
USA 215 3.5 17:06:30 10° ENE 17:12:37 42° SE 17:18:42 10° SSW
OAO 3 Copernicus 4.2 17:08:24 10° WSW 17:13:25 66° SSE 17:18:17 11° ENE
Cosmos 773 Rocket 3.9 17:11:11 10° S 17:16:28 78° ESE 17:21:45 10° NNE
OAO 2 Rocket 4.1 17:14:52 10° WNW 17:20:01 51° N 17:24:48 12° ENE
Cosmos 1461 4.1 17:15:41 10° NW 17:20:11 43° WSW 17:23:33 16° S
Cosmos 2344 4.5 17:22:27 23° ESE 17:23:17 23° ESE 17:28:55 10° ENE
GMS 1 Rocket 4.1 17:19:44 10° W 17:23:45 73° S 17:25:07 38° ESE
Cosmos 1745 Rocket 4.4 17:22:35 10° SSW 17:28:40 64° W 17:34:52 10° N
H-2A ROCKET BODY 3.0 17:26:17 10° W 17:30:34 66° S 17:41:48 19° ESE
DELTA 2 R/B (1) 4.3 17:26:18 10° W 17:31:43 54° NNW 17:37:12 10° ENE
Cosmos 1953 Rocket 3.5 17:32:13 37° SSE 17:33:45 63° E 17:38:01 10° NNE
Resurs 1-3 4.1 17:31:04 20° S 17:33:56 56° W 17:38:15 10° NNW
CZ-3A R/B 4.4 17:25:50 10° SW 17:34:05 18° S 17:35:06 17° S
NOSS 0 Rocket 4.1 17:39:25 32° SSE 17:41:45 46° ESE 17:47:35 10° NE
FALCON 9 R/B 2.1 17:41:12 10° W 17:42:26 25° W 17:42:26 25° W
IGS 5A 4.0 17:43:18 40° E 17:43:28 40° ENE 17:47:21 10° N
Terra 3.9 17:44:52 13° ENE 17:44:52 13° ENE 17:47:02 10° NE
MetOp-B 4.1 17:43:35 40° SE 17:45:30 68° ENE 17:50:49 10° N
Spot 2 Rocket 3.8 17:44:36 41° ESE 17:45:48 50° ENE 17:50:43 10° N
Cosmos 1825 Rocket 4.3 17:43:58 15° SSW 17:47:30 52° W 17:51:51 10° N
Cosmos 1980 4.1 17:47:38 38° ESE 17:47:42 38° ESE 17:52:53 10° NE
Cosmos 1400 Rocket 2.5 17:45:22 10° N 17:49:17 80° E 17:49:31 75° SE
OAO 3 Rocket 3.1 17:44:38 10° WNW 17:49:33 86° SSW 17:50:40 54° ESE
Cosmos 967 Rocket 4.4 17:44:51 10° SSW 17:51:18 82° ESE 17:57:46 10° NNE
Cosmos 1455 3.2 17:48:46 10° NNW 17:52:26 44° W 17:53:42 32° SW
BREEZE-M DEB (TANK) 4.1 17:50:25 10° NNW 17:53:39 36° NE 17:54:37 32° ENE
Delta 2 Rocket 3.4 17:50:19 10° WNW 17:53:36 49° N 17:53:36 49° N
ATLAS CENTAUR R/B 4.0 17:51:36 10° W 17:54:05 19° SW 17:55:21 17° SSW
COSMOS 2428 3.2 17:54:00 10° SSW 17:59:34 58° WNW 18:05:09 10° N
Cosmos 2219 Rocket 3.1 17:57:57 10° SW 18:03:17 46° WNW 18:08:39 10° N
Cosmos 2237 Rocket 2.3 18:05:06 53° ESE 18:05:11 53° ESE 18:10:43 10° NNE
Cosmos 1680 Rocket 4.3 18:06:34 37° ENE 18:06:34 37° ENE 18:10:29 10° NNE
Cosmos 1844 3.6 18:00:10 10° NNW 18:05:55 89° WSW 18:07:14 55° SSE
USA 81 3.9 18:05:55 56° S 18:07:05 85° E 18:12:23 10° N
SPOT 1/Viking Rocket 3.3 18:17:47 76° SE 18:18:08 83° ENE 18:23:19 10° N
Cosmos-2242 4.2 18:19:20 10° NNW 18:23:20 36° W 18:24:00 34° WSW
Cosmos 923 Rocket 3.8 18:23:56 84° S 18:24:06 88° ESE 18:29:24 10° NNE
Cosmos 2333 Rocket 4.1 18:20:22 10° WSW 18:25:08 28° WNW 18:29:59 10° N
Cosmos 2221 4.0 18:24:35 10° N 18:27:05 28° NE 18:27:05 28° NE
Meteor 1-27 4.1 18:25:00 10° N 18:30:48 85° E 18:31:08 79° SSE
Cosmos 2184 Rocket 3.8 18:32:08 72° SSE 18:32:45 80° E 18:39:02 10° N
Landsat 7 4.4 18:34:49 47° WSW 18:34:55 48° W 18:39:30 10° NNW
SPOT 5 3.2 18:41:43 65° N 18:41:43 65° N 18:45:52 10° N
Resurs 01 Rocket 4.1 18:41:02 12° WSW 18:42:27 13° W 18:44:33 10° WNW
Atlas Centaur 2 2.6 18:38:43 10° W 18:43:51 58° SW 18:43:51 58° SW
Cosmos 1844 Rocket 4.1 18:41:14 10° NW 18:45:52 28° WSW 18:46:48 26° WSW
ATLAS 2AS CENTAUR R/B 4.0 18:40:05 10° N 18:46:12 27° NE 18:47:43 25° ENE
Meteor 2-17 Rocket 4.3 18:47:30 88° SW 18:47:33 89° W 18:53:37 10° N
Cosmos 2278 Rocket 2.8 18:43:41 10° N 18:48:28 46° NE 18:48:28 46° NE
BREEZE-M R/B 4.0 18:42:23 10° NW 18:51:07 58° NE 18:51:13 57° NE
SL-16 R/B 3.6 18:54:20 27° NE 18:54:20 27° NE 18:57:03 10° NE
VEP-3 3.5 18:48:21 10° W 19:10:34 11° ESE 19:11:51 10° ESE
USA 215 4.3 18:49:24 10° NNE 18:55:31 44° NW 19:01:37 10° WSW
ATLAS CENTAUR R/B 3.5 18:52:23 10° NNW 18:53:43 21° NNW 18:53:43 21° NNW
ERS-1 Rocket 3.6 18:56:43 53° WNW 18:56:43 53° WNW 19:00:59 10° NNW
OAO 2 Rocket 4.2 18:59:54 10° WNW 19:03:45 48° NW 19:03:45 48° NW
Cosmos 2154 Rocket 4.1 19:13:37 71° NW 19:13:37 71° NW 19:19:23 10° N
Nadezhda 3 Rocket 4.2 19:12:44 10° N 19:18:08 64° NNE 19:18:08 64° NNE
Terra 3.3 19:23:45 33° NW 19:23:45 33° NW 19:26:39 10° NNW
Cosmos 2344 4.3 19:32:17 21° WSW 19:37:08 46° NW 19:44:26 10° NNE
NOSS 3-4 (A) 4.1 20:02:40 10° NNW 20:08:48 65° NW 20:08:48 65° NW
NOSS 3-4 (C) 4.1 20:02:47 10° NNW 20:08:55 65° NW 20:08:55 65° NW
COSMOS 2455 4.2 20:18:25 10° N 20:22:31 33° NNE 20:22:31 33° NNE
Cosmos 1943 Rocket 3.8 20:22:31 10° N 20:25:46 30° NNE 20:25:46 30° NNE
SL-16 R/B 4.2 20:36:10 20° WNW 20:36:10 20° WNW 20:40:02 10° NNW
ATLAS 2AS CENTAUR R/B 3.7 20:30:29 10° NW 20:35:07 38° WNW 20:35:07 38° WNW
USA 267 4.0 21:07:05 46° NW 21:07:05 46° NW 21:11:26 10° NW
Cosmos 2369 Rocket 3.8 21:17:57 10° NNW 21:20:41 30° NNW 21:20:41 30° NNW
CZ-2D R/B 4.1 21:30:30 10° NE 21:32:55 21° ENE 21:32:55 21° ENE
SL-16 R/B 4.2 21:35:19 22° E 21:36:25 23° ENE 21:41:10 10° NNE
SeaSat 1 4.4 21:39:42 10° NE 21:41:47 25° NE 21:41:47 25° NE
CZ-4C R/B 3.1 21:39:51 10° NNW 21:47:36 73° ENE 21:47:45 73° ENE
Lacrosse 5 3.7 21:53:07 28° NNE 21:53:07 28° NNE 21:55:36 10° NNE
Cosmos 2100 Rocket 4.1 22:33:43 75° NE 22:33:43 75° NE 22:39:31 10° N
Resurs 1-4 Rocket 2.9 22:30:03 10° N 22:33:54 48° N 22:33:54 48° N
ADEOS II 3.0 22:35:59 10° NNE 22:40:28 42° E 22:40:28 42° E
Cosmos 1833 Rocket 3.9 22:42:24 31° ESE 22:42:24 31° ESE 22:47:15 10° NE
SEDSat Delta rocket 4.1 22:43:45 66° ESE 22:43:45 66° ESE 22:49:21 10° ESE
Cosmos 1802 Rocket 4.0 22:44:45 73° E 22:44:50 74° E 22:51:13 10° N
Cosmos 1459 Rocket 3.9 22:56:17 68° NW 22:56:17 68° NW 23:01:54 10° N
CBERS-1 4.3 22:51:23 10° NNE 22:55:50 66° NE 22:55:50 66° NE
Cosmos 407 Rocket 3.7 23:00:11 70° NE 23:00:11 70° NE 23:05:02 10° NNE
Cosmos 1140 Rocket 3.5 23:11:06 73° E 23:11:06 73° E 23:16:09 10° NNE
Cosmos 1536 4.3 23:11:57 32° E 23:11:57 32° E 23:15:24 10° NNE
Cosmos 1725 Rocket 3.9 23:12:29 68° S 23:13:20 85° E 23:19:34 10° N
Cosmos 614 Rocket 4.5 23:14:12 48° NW 23:14:12 48° NW 23:18:26 10° N
GOES 2 Rocket 3.9 23:13:07 66° WSW 23:14:02 76° S 23:19:58 10° E
Cosmos 2061 Rocket 3.9 23:14:02 70° SW 23:14:39 75° W 23:21:01 10° N
CZ-2D R/B 3.4 23:10:22 10° NNW 23:14:14 28° WNW 23:14:14 28° WNW
CZ-4B R/B 4.2 23:10:14 10° N 23:14:16 42° NW 23:14:16 42° NW
Aureole 1 Rocket 3.6 23:18:37 52° NE 23:18:37 52° NE 23:22:26 10° NNE
ARIANE 5 R/B 2.9 23:13:09 10° NNE 23:18:09 56° E 23:18:46 52° SE
SL-16 R/B 3.0 23:20:24 42° W 23:20:24 42° W 23:25:33 10° NNW
SL-08 R/B 4.5 23:18:13 26° ESE 23:20:15 39° ENE 23:24:40 10° N
SL-08 R/B 4.4 23:19:57 66° SSW 23:20:52 80° W 23:27:08 10° N
SeaSat 1 4.4 23:18:38 10° NNW 23:21:34 16° NW 23:21:34 16° NW
IDEFIX/ARIANE 42P 3.7 23:21:11 10° NNE 23:25:57 36° E 23:27:54 27° SE
Tsikada Rocket 4.5 23:19:44 10° N 23:26:04 59° E 23:29:59 24° SSE
Cosmos 1666 3.5 23:26:57 49° NE 23:26:57 49° NE 23:30:01 10° NNE
Meteor 1-5 Rocket 4.0 23:27:48 69° WSW 23:28:12 72° W 23:33:53 10° N
Cosmos 1023 Rocket 4.4 23:29:07 69° W 23:29:13 69° WNW 23:34:26 10° N
Lacrosse 5 4.5 23:34:15 10° NW 23:34:25 10° NNW 23:34:35 10° NNW
GPS 2-04 Rocket1 3.8 23:38:32 33° NNW 23:39:10 36° N 23:42:45 10° ENE
Meteor 2-4 Rocket 3.7 23:34:28 10° N 23:40:24 76° W 23:42:07 48° SSW
COBE Rocket 3.8 23:41:31 60° SSW 23:42:24 76° W 23:47:27 10° NNW
Okean 3 3.3 23:41:33 10° N 23:45:45 90° W 23:45:59 80° S
IRS-1C 4.4 23:45:07 10° N 23:50:13 48° WNW 23:51:06 44° WSW
Cosmos 1437 Rocket 3.4 23:47:55 10° NNW 23:51:02 44° NW 23:51:02 44° NW
Delta 128 4.2 23:52:30 41° WSW 23:54:31 61° S 23:59:58 10° ESE
CZ-2C R/B 3.4 23:51:35 10° NNE 23:55:34 55° E 23:56:50 37° SSE
